User: anonymous   Login
Location: Unspecified
(0.0000°N, 0.0000°E)
Time: 20:26:08
(UTC+00:00)
Language:

TISAT 1 - Orbit

View from above orbital plane
View from above orbital plane
View from above satellite
View from above satellite

Ground track
Ground track

The orbit data is extracted from the following two-line orbital elements,

1 36799U 10035E   22145.52908351  .00004296  00000-0  42083-3 0  9991
2 36799  98.1856 355.0710 0012132 164.7079 195.4508 14.92790631644342
Epoch (UTC): 25 May 2022 12:41:52
Eccentricity: 0.0012132
inclination: 98.1856°
perigee height: 581 km
apogee height: 597 km
right ascension of ascending node: 355.0710°
argument of perigee: 164.7079°
revolutions per day: 14.92790631
mean anomaly at epoch: 195.4508°
orbit number at epoch: 64434

The dashed part of the orbit path shows where the satellite is in the earth's shadow,  

DLR